Regional Weather Roundup
Issued by NWS

Home | Current Version | Previous Version | Graphics & Text | Print | Product List | Glossary On
Versions: 1 2 3 4 5 6 7 8 9 10 11 12 13 14 15 16 17 18 19 20 21 22 23 24 25 26 27 28 29 30 31 32 33 34 35 36 37 38 39 40 41 42 43 44 45 46 47 48 49 50
000
ASUS43 KLMK 230510
RWRKY
KENTUCKY REGIONAL WEATHER ROUNDUP
NATIONAL WEATHER SERVICE LOUISVILLE KY
100 AM EDT SUN APR 23 2017

NOTE "FAIR" INDICATES FEW OR NO CLOUDS BELOW 12,000 FEET
WITH NO SIGNIFICANT WEATHER AND/OR OBSTRUCTIONS TO VISIBILITY.

KYZ001>023-026-027-061>063-070>075-230600-
WESTERN AND SOUTH CENTRAL KENTUCKY

CITY           SKY/WX    TMP DP  RH WIND       PRES   REMARKS
PADUCAH        CLOUDY    53  41  63 NE13      29.98F
HENDERSON      CLOUDY    53  41  63 NE9       30.02S
OWENSBORO      MOCLDY    51  41  68 NE9       30.01S
HOPKINSVILLE   CLOUDY    51  46  82 NE22      29.93F
BOWLING GREEN  CLOUDY    52  48  86 NE9       29.95F
GLASGOW        CLOUDY    49  49 100 NE13G18   29.94F
$$

KYZ024-025-028>034-038-045-046-053-230600-
NORTH CENTRAL KENTUCKY

CITY           SKY/WX    TMP DP  RH WIND       PRES   REMARKS
LOUISVILLE/SDF MOCLDY    49  39  68 NE9       30.02F
LOUISVILLE/LOU MOCLDY    48  38  68 N6        30.03S
FORT KNOX      MOCLDY    49  39  68 NE10      29.98F
$$

KYZ035>037-039>044-047>052-055>060-089>105-230600-
NORTHEAST KENTUCKY

CITY           SKY/WX    TMP DP  RH WIND       PRES   REMARKS
LEXINGTON      MOCLDY    46  40  79 NE10      30.01F
COVINGTON      CLEAR     47  35  63 NE14      30.06S
FRANKFORT      CLEAR     47  38  71 NE7       30.00F
$$

KYZ054-064>069-076>088-106>120-230600-
SOUTHEAST KENTUCKY

CITY           SKY/WX    TMP DP  RH WIND       PRES   REMARKS
JACKSON        CLOUDY    47  45  93 CALM      29.98F
LONDON         LGT RAIN  48  45  89 NE10      29.95F FOG
SOMERSET       CLOUDY    46  46 100 E12       29.96S
MIDDLESBORO    CLOUDY    52  52  99 CALM      29.92F
MONTICELLO     CLOUDY    50  48  93 N10G20    29.95F
$$





USA.gov is the U.S. government's official web portal to all federal, state and local government web resources and services.